Simultaneous Nadir Overpasses (SNOs) Predictions

Prediction of SNOs between GOES-16 and FY3D Satellite Orbit:

Table of predicted SNOs for the next 14.0 days since TLE Epoch: 3/20/2021
Index Date Time (GOES-16) GOES-16 Lat,Lon FY3D Lat,Lon Distance(km) Time Diff (sec)
1 03/20/2021 18:28:06 0.05, -75.20 0.58, -72.94 258.84 80
2 03/22/2021 06:49:33 -0.04, -75.21 0.63, -78.10 330.61 80
3 03/23/2021 06:27:56 -0.04, -75.21 -0.44, -73.53 192.21 80
4 03/24/2021 18:49:33 0.03, -75.20 -0.75, -78.74 402.70 80
5 03/25/2021 18:33:15 0.03, -75.21 0.27, -74.15 120.67 80
6 03/27/2021 06:54:44 -0.02, -75.22 0.89, -79.33 467.51 80
7 03/28/2021 06:33:06 -0.02, -75.23 -0.13, -74.74 55.87 80
8 03/30/2021 18:35:45 0.02, -75.24 -0.03, -75.36 14.75 80
9 04/02/2021 06:40:57 -0.02, -75.28 0.12, -75.97 78.18 80
